STARLINK-33792, 63506

Orbit data source: Space-Track

STARLINK-33792, 63506 is a payload satellite owned by SpaceX/Seattle (US) in LEO that was launched on Mon, 07 Apr 2025 UTC via an FALCON 9 launch vehicle from the Air Force Western Test Range (AFWTR). Payload-class satellites include a variety of spacecraft equipped with specific instruments for various scientific and technological missions. These include communications satellites like Starlink; space stations such as the ISS; scientific satellites like the Hubble; Earth observation satellites from companies like Planet Labs, Umbra, and HawkEye 360; GPS; miniature CubeSats for education and research; and military/defense satellites.

Loading next visibility...
Identifier
63506, 2025-071P
Orbit
LEO
Country
Flag of USUS
Related business
Manufacturer
SpaceX/Seattle
Mission
Operational Commercial Communications
Bus & Motor
STARLINK V2MO, Unknown motor
Mass
575 kg wet, ~530 kg dry
Launch date (UTC)
2025-04-07 (1 year ago)
Launch vehicle
FALCON 9
Launch site
Air Force Western Test Range (AFWTR)
Object type
Payload
Rocket body
Debris
Shape & HBR
Box + 2 Pan, 17.7 m
Radar Cross Section
36.964 m², Large (>1 m²)

Expand to show TLE details & history
Last TLE update: 1 day ago

TLE from 1 day ago
0 STARLINK-33792
1 63506U 25071P   26170.91323616  .00013239  00000-0  45824-3 0  9996
2 63506  53.1610  24.8995 0001194  99.0585 261.0551 15.30206227 68378
Epoch: 2026-06-19T21:55Z
TLE epoch observation values (Epoch: 2026-06-19T21:55:03.604Z)
Latitude
-0°
Longitude
147.99909°
Altitude
476.224 km
Speed
7.629 km/s
True Right ascension
01h 39m 35s
True Declination
0° 00' 00"
Sunlit
Object was in daylight at epoch
Visualization orbit readout
Latitude
Unknown
Longitude
Unknown
Altitude
Unknown
Speed
Unknown
Apparent Right ascension
Unknown
Apparent Declination
Unknown
Sunlit
N/A
Visualization observer readout
Local Sidereal Time
10:19:03
Azimuth
Unknown
Elevation
Unknown
Doppler factor
Unknown
Orbital elements
Apogee altitude
476.271 km
Perigee altitude
474.634 km
Semi-major axis
6,853.59 km
Eccentricity
0.00012
Inclination
53.161°
RAAN
24.8995°
Arg. of periapsis
99.0585°
True anomaly
261.04158°
Mean anomaly
261.0551°
Eccentric anomaly
261.04834°
Mean motion
3.8253 °/min
Orbital period
94.11 mins
BSTAR
0.00045824
Loading maneuver chart data...
Computing Atmospheric mass density...
Loading historical data...
Loading historical data...
Loading historical data...
Loading historical data...
Loading historical data...
Loading historical data...
Loading historical data...

Documentation

Showing up to 5 results
|